Tracking 19854 objects as of 23-Sep-2019
HD Live streaming from Space Station
objects crossing your sky now

METEOR 2-1

Track METEOR 2-1 now!
10-day predictions
METEOR 2-1 is classified as:


NORAD ID: 8026
Int'l Code: 1975-064A
Perigee: 849.1 km
Apogee: 881.9 km
Inclination: 81.3 °
Period: 102.1 minutes
Semi major axis: 7236 km
RCS: 5.6919 m2 (large)
Launch date: July 11, 1975
Source: Commonwealth of Independent States (former USSR) (CIS)
Launch site: PLESETSK MISSILE AND SPACE COMPLEX (PKMTR)
aabbcc
Your satellite tracking list
Your tracking list is empty




NASA's NSSDC Master Catalog

Two Line Element Set (TLE):
1  8026U 75064A   19265.52055056 -.00000103  00000-0 -65204-4 0  9996
2  8026  81.2763 249.5691 0022650 353.1696   6.9162 14.10303451272871
Source of the keplerian elements: AFSPC